Home > Weather > Germantown > Past weeks

Flag for U.S.A. Weather for the Past 2 Weeks in Germantown, Maryland, U.S.A.

Now
21 °F

Partly cloudy.


Feels Like: 9 °F
Forecast: 13 / 22 °F
Wind: 13 mph from Northwest

Location: Frederick Municipal Airport

Current Time: Feb 13, 2016 at 6:34:07 AM

Latest Report: Feb 13, 2016 at 5:20 AM


Visibility: 10 mi

Pressure: 30.12 "Hg

Humidity: 68%

Dew point: 12 °F

Location of GermantownLocation

Historic Weather in Germantown — Graph

°F

Germantown Temperature Yesterday

Maximum temperature yesterday: 28 °F (at 4:47 PM)
Minimum temperature yesterday: 12 °F (at 6:50 AM)
Average temperature yesterday: 21 °F

High & Low Weather Summary for the Past Weeks

 TemperatureHumidityPressure
High55 °F (Jan 31, 4:51 PM)100% (Jan 29, 5:20 AM)30.48 "Hg (Jan 29, 5:20 AM)
Low12 °F (Feb 12, 6:50 AM)42% (Jan 30, 2:50 PM)29.58 "Hg (Jan 29, 5:15 AM)
Average32 °F79%30.03 "Hg
* Reported Jan 29 5:15 AM — Feb 13 5:20 AM, Germantown, Weather by CustomWeather, © 2016

Note: Actual official high and low records may vary slightly from our data, if they occured in-between our weather recording intervals... More about our weather records

Advertising

Germantown Weather History for the Previous 24 Hours

 ConditionsComfort  
Time TempWeatherWind HumidityBarometerVisibility
5:20 AM
Sat, Feb 13
21 °FPartly cloudy.13 mph68%30.12 "Hg10 mi
5:00 AM21 °FPartly cloudy.12 mph68%30.10 "Hg10 mi
4:40 AM21 °FPassing clouds.14 mph68%30.10 "Hg10 mi
4:20 AM21 °FPassing clouds.15 mph63%30.09 "Hg10 mi
4:00 AM21 °FPassing clouds.9 mph68%30.07 "Hg10 mi
3:40 AM23 °FPartly cloudy.9 mph68%30.06 "Hg10 mi
2:20 AM27 °FOvercast.13 mph64%30.02 "Hg10 mi
1:40 AM23 °FPartly cloudy.8 mph74%30.01 "Hg10 mi
1:20 AM23 °FClear.5 mph74%30.01 "Hg10 mi
1:00 AM23 °FClear.5 mph80%30.01 "Hg10 mi
12:40 AM25 °FPassing clouds.6 mph74%30.01 "Hg10 mi
12:20 AM23 °FOvercast.No wind86%30.02 "Hg10 mi
12:00 AM23 °FPartly cloudy.No wind86%30.02 "Hg10 mi
11:20 PM
Fri, Feb 12
23 °FOvercast.5 mph93%30.02 "Hg10 mi
11:00 PM25 °FOvercast.3 mph93%30.02 "Hg10 mi
10:20 PM25 °FMostly cloudy.5 mph93%30.03 "Hg10 mi
9:20 PM27 °FLight snow. Mostly cloudy.3 mph86%30.04 "Hg7 mi
8:40 PM27 °FLight snow. Mostly cloudy.7 mph86%30.04 "Hg7 mi
8:20 PM27 °FMostly cloudy.6 mph69%30.03 "Hg10 mi
8:00 PM27 °FMostly cloudy.No wind69%30.03 "Hg10 mi
6:47 PM25 °FMostly cloudy.No wind74%30.03 "Hg10 mi
5:47 PM28 °FOvercast.No wind47%30.02 "Hg10 mi
4:47 PM28 °FBroken clouds.6 mph51%30.03 "Hg10 mi
3:47 PM27 °FPartly sunny.5 mph54%30.05 "Hg10 mi
2:50 PM27 °FMore clouds than sun.8 mph64%30.09 "Hg10 mi
1:48 PM27 °FOvercast.10 mph54%30.12 "Hg10 mi
12:47 PM27 °FOvercast.6 mph50%30.17 "Hg10 mi
11:48 AM25 °FPartly sunny.7 mph50%30.23 "Hg10 mi
10:50 AM23 °FPartly sunny.3 mph54%30.25 "Hg10 mi
9:50 AM21 °FPartly sunny.5 mph58%30.29 "Hg10 mi
8:55 AM19 °FPartly sunny.6 mph63%30.31 "Hg10 mi
7:49 AM16 °FSunny.3 mph73%30.32 "Hg10 mi
6:50 AM12 °FClear.6 mph79%30.32 "Hg10 mi
Weather by CustomWeather, © 2016

See weather overviewHow to use our weather pages